SPACEMOBILE-SSR04 DEB, 62372

Orbit data source: Space-Track

SPACEMOBILE-SSR04 DEB, 62372 is space debris in LEO originally from a launch on Thu, 12 Sep 2024 UTC launched from the Air Force Eastern Test Range (AFETR). Debris objects in space refer to the collection of defunct objects orbiting the Earth. Examples of debris include non-operational satellites, rocket bodies, and fragments generated from explosions, collisions, or faulty payload assembly.

Loading next visibility...
Identifier
62372, 2024-163J
Orbit
LEO
Last TLE update
1 month ago
Origin
Manufacturer
AST & Science
Mission
Spacecraft
Bus & Motor
BW3 LVA, Unknown motor
Mass
150 kg wet, 150 kg dry
Launch date (UTC)
2024-09-12 (10 months ago)
Launch vehicle
Unknown
Launch site
Air Force Eastern Test Range (AFETR)
Object type
Payload
Rocket body
Debris
Shape & HBR
Cyl, 2 m
Radar Cross Section
1.963 m², Large (>1 m²)

Expand to show TLE details & history

TLE from 1 month ago
0 SPACEMOBILE-SSR04 DEB
1 62372U 24163J   25149.04264611  .00009601  00000-0  37172-3 0  9990
2 62372  52.9899 269.9018 0007562  55.0568 305.1139 15.26829549 36033
Epoch: 2025-05-29T01:01Z
TLE epoch observation values (Epoch: 2025-05-29T01:01:24.623Z)
Latitude
Longitude
7.73179°
Altitude
483.195 km
Speed
7.627 km/s
True Right ascension
17h 59m 36s
True Declination
0° 00' 00"
Sunlit
Object was in full shadow at epoch
Visualization orbit readout
Latitude
-0.96647°
Longitude
-147.96307°
Altitude
489.114 km
Speed
7.619 km/s
Apparent Right ascension
08h 28m 24s
Apparent Declination
-20° 15' 03"
Sunlit
Object is in daylight
Visualization observer readout
Local Sidereal Time
21:41:18
Azimuth
43.772° NE
Elevation
-64.9°
Doppler factor
1
Orbital elements
Apogee altitude
490.771 km
Perigee altitude
480.39 km
Semi-major axis
6,863.718 km
Eccentricity
0.00076
Inclination
52.9899°
RAAN
269.9018°
Arg. of periapsis
55.0568°
True anomaly
Unknown
Mean anomaly
305.1139°
Eccentric anomaly
Unknown
Mean motion
3.81684 °/min
Orbital period
94.32 mins
BSTAR
0.00037172
Loading maneuver chart data...
Loading SW <> Apogee altitude chart data...
Loading historical data...
Loading historical data...
Loading historical data...
Loading historical data...
Loading historical data...
Loading historical data...
Loading historical data...

SPACEMOBILE-SSR04 DEB Visibility forecast

Observer location: undefined°, undefined°

Span
Click to sort rows by Start time (UTC) header in descending order
Start Az.
Max El. time (UTC)
Max El. Az.
Max El.
End time (UTC)
End Az.
4 mins2025-07-01 21:11:55.866Z169.539° S2025-07-01 21:13:55.866Z134.438° SE17.584°2025-07-01 21:15:55.866Z95.022° ESE
5 mins2025-07-01 22:49:55.866Z255.536° W2025-07-01 22:51:55.866Z318.62° NNW38.401°2025-07-01 22:54:55.866Z39.205° NE
4 mins2025-07-02 03:47:55.866Z351.399° N2025-07-02 03:48:55.866Z13.433° NNE21.206°2025-07-02 03:51:55.866Z75.846° E
5 mins2025-07-02 05:25:55.866Z292.515° NW2025-07-02 05:27:55.866Z207.721° SW39.718°2025-07-02 05:30:55.866Z146.049° SSE
|